Location: Noordwijk
(52.2400°N, 4.4500°E)
Time: 07:29:32
(UTC+00:00)

SO-50 - Visible Passes

Search period start: 06 December 2022 00:00
Search period end: 16 December 2022 00:00
Orbit: 584 x 697 km, 64.6° (Epoch: 05 December)

Date Brightness Start Highest point End Pass type
(mag) Time Alt. Az. Time Alt. Az. Time Alt. Az.
06 Dec ? 04:34:51 10° SSE 04:38:13 19° ESE 04:41:38 10° ENE visible
06 Dec ? 06:13:08 10° SW 06:18:01 89° NW 06:23:00 10° NE visible
07 Dec ? 04:57:35 10° S 05:02:01 36° ESE 05:06:31 10° NE visible
07 Dec ? 06:37:32 10° WSW 06:42:20 52° NW 06:47:12 10° NE visible
08 Dec ? 03:44:10 10° SE 03:46:28 13° ESE 03:48:47 10° E visible
08 Dec ? 05:21:11 10° SSW 05:26:01 69° SE 05:30:57 10° NE visible
09 Dec ? 04:08:03 19° SSE 04:10:09 26° ESE 04:14:15 10° ENE visible
09 Dec ? 05:45:43 12° SW 05:50:14 68° NW 05:55:11 10° NE visible
10 Dec ? 04:32:51 40° SSE 04:34:03 50° SE 04:38:50 10° NE visible
10 Dec ? 06:10:30 13° WSW 06:14:38 42° NW 06:19:20 10° NE visible
11 Dec ? 03:19:42 17° E 03:19:42 17° E 03:21:46 10° ENE visible
11 Dec ? 04:57:18 62° SW 04:58:09 89° NW 05:03:08 10° NE visible
11 Dec ? 06:34:56 10° W 06:39:11 29° NNW 06:43:31 10° NE visible
12 Dec ? 03:43:55 27° E 03:43:55 27° E 03:46:39 10° NE visible
12 Dec ? 05:21:32 46° WNW 05:22:28 52° NW 05:27:19 10° NE visible
12 Dec ? 06:59:59 10° WNW 07:03:53 23° NNW 07:07:49 10° NE visible
13 Dec ? 04:07:58 38° ENE 04:07:58 38° ENE 04:11:04 10° NE visible
13 Dec ? 05:45:34 29° WNW 05:46:56 34° NNW 05:51:28 10° NE visible
14 Dec ? 02:54:18 10° ENE 02:54:18 10° ENE 02:54:21 10° ENE visible
14 Dec ? 04:31:54 42° NNE 04:31:54 42° NNE 04:35:17 10° NE visible
14 Dec ? 06:09:29 19° WNW 06:11:34 25° NNW 06:15:41 10° NE visible
15 Dec ? 03:18:08 15° NE 03:18:08 15° NE 03:18:56 10° NE visible
15 Dec ? 04:55:43 37° N 04:55:43 37° N 04:59:26 10° NE visible
15 Dec ? 06:33:18 13° NW 06:36:19 21° N 06:40:04 10° NE visible
